Tracking 19564 objects as of 19-Mar-2019
HD Live streaming from Space Station
objects crossing your sky now

REMDEB-DS2

Track REMDEB-DS2 now!
10-day predictions


NORAD ID: 43680
Int'l Code: 1998-067PR
Perigee: 394.0 km
Apogee: 398.4 km
Inclination: 51.6 °
Period: 92.3 minutes
Semi major axis: 6767 km
RCS: Unknown
Launch date: November 20, 1998
Source: United Kingdom (UK)
Launch site: TYURATAM MISSILE AND SPACE COMPLEX (TTMTR)
aabbcc
Your satellite tracking list
Your tracking list is empty




NASA's NSSDC Master Catalog

Two Line Element Set (TLE):
1 43680U 98067PR  19077.93790943 +.00021918 +00000-0 +27645-3 0  9997
2 43680 051.6315 084.9999 0003247 119.0696 241.0765 15.59513794042268
Source of the keplerian elements: AFSPC